Home   Weather   Pokhara   Past weeks

Flag for Nepal Past Weather in Pokhara, Nepal — Yesterday and Last 2 Weeks

Now
59 °F

Passing clouds.


Feels Like: 60 °F
Forecast: 62 / 85 °F
Wind: 3 mph from Southeast

Location: Kathmandu Airport

Current Time: Apr 28, 2017 at 4:52:51 am

Latest Report: Apr 28, 2017 at 3:35 am


Visibility: 4 mi

Pressure: 29.95 "Hg (27.09 "Hg at 847m altitude)

Humidity: 72%

Dew Point: 50 °F

Location of PokharaLocation

Past Weather in Pokhara — Graph

°F

Pokhara Temperature Yesterday

Maximum temperature yesterday: 84 °F (at 2:05 pm)
Minimum temperature yesterday: 57 °F (at 5:35 am)
Average temperature yesterday: 73 °F

High & Low Weather Summary for the Past Weeks

 TemperatureHumidityPressure
High86 °F (Apr 26, 3:05 pm)100% (Apr 21, 2:35 am)30.12 "Hg (Apr 21, 2:35 am)
Low54 °F (Apr 13, 4:35 am)20% (Apr 26, 1:35 pm)29.80 "Hg (Apr 21, 4:05 pm)
Average70 °F66%29.94 "Hg
* Reported Apr 13 3:35 am — Apr 28 3:35 am, Pokhara, Weather by CustomWeather, © 2017

Note: Actual official high and low records may vary slightly from our data, if they occured in-between our weather recording intervals... More about our weather records

Advertising

Pokhara Weather History for the Previous 24 Hours

Scroll right to see more
 ConditionsComfort  
Time TempWeatherWind HumidityBarometerVisibility
3:35 am
Fri, Apr 28
59 °FPassing clouds.3 mph72%29.95 "Hg4 mi
2:35 am61 °FPassing clouds.5 mph68%29.98 "Hg4 mi
1:35 am61 °FPassing clouds.3 mph68%29.98 "Hg4 mi
12:35 am63 °FPassing clouds.3 mph59%30.01 "Hg4 mi
12:05 am64 °FPassing clouds.3 mph56%30.01 "Hg4 mi
11:35 pm
Thu, Apr 27
64 °FPassing clouds.3 mph56%30.01 "Hg4 mi
11:05 pm64 °FPassing clouds.2 mph56%30.04 "Hg4 mi
10:35 pm66 °FPassing clouds.3 mph49%30.04 "Hg4 mi
10:05 pm68 °FPassing clouds.6 mph46%30.04 "Hg4 mi
9:35 pm70 °FPassing clouds.2 mph40%30.04 "Hg4 mi
9:05 pm70 °FPassing clouds.6 mph40%30.01 "Hg4 mi
8:35 pm72 °FPassing clouds.6 mph36%30.01 "Hg4 mi
8:05 pm73 °FPassing clouds.8 mph33%30.01 "Hg4 mi
7:35 pm73 °FPassing clouds.12 mph31%30.01 "Hg4 mi
7:05 pm73 °FScattered clouds.7 mph31%29.98 "Hg5 mi
6:35 pm75 °FScattered clouds.10 mph29%29.95 "Hg5 mi
6:05 pm79 °FScattered clouds.7 mph23%29.95 "Hg5 mi
5:35 pm81 °FScattered clouds.9 mph20%29.95 "Hg5 mi
5:05 pm82 °FScattered clouds.9 mph20%29.92 "Hg5 mi
4:35 pm82 °FBroken clouds.10 mph21%29.92 "Hg5 mi
4:05 pm82 °FPartly sunny.10 mph21%29.92 "Hg5 mi
3:35 pm82 °FPartly sunny.9 mph25%29.92 "HgN/A
3:05 pm81 °FPartly sunny.9 mph26%29.92 "HgN/A
2:35 pm82 °FPartly sunny.10 mph28%29.92 "HgN/A
2:05 pm84 °FPassing clouds.7 mph25%29.95 "HgN/A
1:35 pm82 °FPassing clouds.9 mph26%29.95 "HgN/A
1:05 pm82 °FPassing clouds.10 mph28%29.95 "Hg5 mi
12:35 pm82 °FPassing clouds.8 mph23%29.98 "Hg5 mi
12:05 pm82 °FPassing clouds.3 mph23%29.98 "Hg4 mi
11:35 am82 °FPassing clouds.3 mph23%30.01 "Hg4 mi
11:05 am81 °FPassing clouds.3 mph30%30.01 "Hg4 mi
10:35 am79 °FPassing clouds.3 mph34%30.01 "Hg4 mi
10:05 am77 °FPassing clouds.3 mph42%30.01 "Hg4 mi
9:35 am75 °FHaze.5 mph44%30.01 "Hg3 mi
9:05 am73 °FHaze.2 mph44%30.01 "Hg2 mi
8:35 am70 °FHaze.3 mph53%30.01 "Hg2 mi
8:05 am68 °FHaze.2 mph56%30.01 "Hg2 mi
7:35 am66 °FHaze.No wind60%29.98 "Hg2 mi
7:05 am63 °FHaze.2 mph68%29.98 "Hg2 mi
6:35 am59 °FFog.2 mph72%29.98 "Hg2 mi
6:05 am57 °FFog.5 mph77%29.98 "Hg3 mi
5:35 am57 °FFog.3 mph77%29.95 "Hg3 mi
4:35 am59 °FPassing clouds.No wind72%29.95 "Hg4 mi
Weather by CustomWeather, © 2017

See weather overviewHow to use our weather pages